Location: Harbor View
(36.2448°N, 86.5797°W)
Time: 08:26:37
(UTC+00:00)

ATLAS 2AS CENTAUR R/B - Pass Details

Date: 29 October 2020
Orbit: 939 x 1273 km, 63.7° (Epoch: 23 November)

Event Time Altitude Azimuth Distance (km) Brightness Sun altitude
Rises 23:37:25 0° 336° (NNW) 4,151 6.0 -9.6°
Reaches altitude 10° 23:42:05 10° 0° (N) 3,119 5.0 -10.5°
Maximum altitude 23:45:41 14° 30° (NNE) 2,771 4.5 -11.3°
Enters shadow 23:48:38 11° 55° (NE) 2,927 4.4 -11.8°
